When you browse on this site, cookies collect data to enhance your experience and personalize the content and advertising you see.
Visit our Privacy Policy to learn more. By continuing to use the site, you agree to this use of cookies and data.
  • In Hungary
  • List of Countries
  • For 7 days
  • Water Temperature
  • Satellite Maps
  • Weather Map
  • News
  • Weather Widgets
  • user-avatar
    Login

    Hourly Weather Mairena del Aljarafe

    Today, 19 November, Monday

    Time Temperature Precipitation Wind Pressure Humidity
    00:00 +14°C° 0 mm 2 mps 744 mmHg 89%
    01:00 +14°C° 0.3 mm 2 mps 744 mmHg 90%
    02:00 +14°C° 0.3 mm 2 mps 744 mmHg 90%
    03:00 +14°C° 0.3 mm 2 mps 745 mmHg 91%
    04:00 +13°C° 0.1 mm 2 mps 745 mmHg 91%
    05:00 +13°C° 0.1 mm 2 mps 745 mmHg 92%
    06:00 +13°C° 0 mm 2 mps 745 mmHg 92%
    07:00 +13°C° 0 mm 1 mps 745 mmHg 90%
    08:00 +14°C° 0 mm 1 mps 746 mmHg 88%
    09:00 +15°C° 0 mm 1 mps 746 mmHg 85%
    10:00 +15°C° 0.2 mm 2 mps 746 mmHg 81%
    11:00 +16°C° 0.2 mm 3 mps 746 mmHg 76%
    12:00 +17°C° 0.2 mm 3 mps 747 mmHg 72%
    13:00 +17°C° 0.5 mm 4 mps 746 mmHg 72%
    14:00 +17°C° 0.5 mm 4 mps 746 mmHg 72%
    15:00 +16°C° 0.5 mm 5 mps 746 mmHg 71%
    16:00 +17°C° 0.5 mm 4 mps 747 mmHg 74%
    17:00 +15°C° 0.5 mm 4 mps 747 mmHg 77%
    18:00 +14°C° 0.5 mm 3 mps 747 mmHg 80%
    19:00 +14°C° 0.1 mm 3 mps 747 mmHg 82%
    20:00 +14°C° 0.1 mm 2 mps 747 mmHg 83%
    21:00 +14°C° 0.1 mm 2 mps 748 mmHg 84%
    22:00 +14°C° 0.2 mm 2 mps 748 mmHg 86%
    23:00 +14°C° 0.2 mm 2 mps 747 mmHg 87%

    Tomorrow, 20 November, Tuesday

    Time Temperature Precipitation Wind Pressure Humidity
    00:00 +13°C° 0.2 mm 2 mps 747 mmHg 88%
    01:00 +13°C° 0.5 mm 2 mps 747 mmHg 89%
    02:00 +14°C° 0.5 mm 2 mps 747 mmHg 90%
    03:00 +14°C° 0.5 mm 2 mps 746 mmHg 90%
    04:00 +14°C° 0.3 mm 2 mps 746 mmHg 91%
    05:00 +14°C° 0.3 mm 2 mps 746 mmHg 92%
    06:00 +14°C° 0.3 mm 2 mps 746 mmHg 92%
    07:00 +14°C° 0.1 mm 2 mps 747 mmHg 90%
    08:00 +14°C° 0.1 mm 3 mps 747 mmHg 89%
    09:00 +14°C° 0.1 mm 3 mps 748 mmHg 87%
    10:00 +15°C° 0.1 mm 4 mps 748 mmHg 80%
    11:00 +16°C° 0.1 mm 5 mps 749 mmHg 74%
    12:00 +16°C° 0.1 mm 7 mps 749 mmHg 67%
    13:00 +16°C° 0 mm 7 mps 749 mmHg 65%
    14:00 +16°C° 0 mm 7 mps 750 mmHg 64%
    15:00 +16°C° 0 mm 6 mps 750 mmHg 63%
    16:00 +15°C° 0 mm 6 mps 750 mmHg 67%
    17:00 +15°C° 0 mm 5 mps 750 mmHg 71%
    18:00 +14°C° 0 mm 4 mps 751 mmHg 75%
    19:00 +14°C° 0 mm 4 mps 751 mmHg 78%
    20:00 +13°C° 0 mm 4 mps 752 mmHg 81%
    21:00 +13°C° 0 mm 4 mps 752 mmHg 83%
    22:00 +13°C° 0.2 mm 3 mps 752 mmHg 85%
    23:00 +13°C° 0.2 mm 3 mps 752 mmHg 87%

    Day after tomorrow, 21 November, Wednesday

    Time Temperature Precipitation Wind Pressure Humidity
    00:00 +12°C° 0.2 mm 3 mps 752 mmHg 89%
    01:00 +13°C° 0.3 mm 2 mps 752 mmHg 89%
    02:00 +13°C° 0.3 mm 2 mps 752 mmHg 90%
    03:00 +13°C° 0.3 mm 2 mps 753 mmHg 91%
    04:00 +13°C° 0.2 mm 2 mps 752 mmHg 91%
    05:00 +13°C° 0.2 mm 2 mps 752 mmHg 91%
    06:00 +13°C° 0.2 mm 1 mps 752 mmHg 91%
    07:00 +13°C° 0 mm 1 mps 753 mmHg 88%
    08:00 +14°C° 0 mm 1 mps 754 mmHg 84%
    09:00 +15°C° 0 mm 1 mps 754 mmHg 81%
    10:00 +16°C° 0.1 mm 2 mps 754 mmHg 76%
    11:00 +17°C° 0.1 mm 3 mps 754 mmHg 70%
    12:00 +18°C° 0.1 mm 4 mps 754 mmHg 64%
    13:00 +18°C° 0.4 mm 4 mps 754 mmHg 64%
    14:00 +18°C° 0.4 mm 4 mps 754 mmHg 64%
    15:00 +18°C° 0.4 mm 4 mps 754 mmHg 64%
    16:00 +17°C° 0.3 mm 4 mps 754 mmHg 70%
    17:00 +16°C° 0.3 mm 3 mps 754 mmHg 75%
    18:00 +15°C° 0.3 mm 2 mps 755 mmHg 81%
    19:00 +14°C° 0.1 mm 2 mps 755 mmHg 82%
    20:00 +14°C° 0.1 mm 2 mps 756 mmHg 84%
    21:00 +14°C° 0.1 mm 1 mps 756 mmHg 86%
    22:00 +13°C° 0 mm 1 mps 756 mmHg 86%
    23:00 +13°C° 0 mm 1 mps 756 mmHg 87%

    22 November, Thursday

    Time Temperature Precipitation Wind Pressure Humidity
    00:00 +13°C° 0 mm 1 mps 756 mmHg 87%
    01:00 +13°C° 0 mm 1 mps 756 mmHg 87%
    02:00 +13°C° 0 mm 1 mps 756 mmHg 88%
    03:00 +12°C° 0 mm 1 mps 756 mmHg 88%
    04:00 +12°C° 0 mm 1 mps 756 mmHg 88%
    05:00 +12°C° 0 mm 1 mps 756 mmHg 89%
    06:00 +12°C° 0 mm 1 mps 756 mmHg 89%
    07:00 +13°C° 0 mm 1 mps 756 mmHg 87%
    08:00 +13°C° 0 mm 1 mps 757 mmHg 85%
    09:00 +14°C° 0 mm 1 mps 757 mmHg 83%
    10:00 +15°C° 0 mm 1 mps 757 mmHg 78%
    11:00 +16°C° 0 mm 1 mps 757 mmHg 73%
    12:00 +18°C° 0 mm 1 mps 756 mmHg 69%
    13:00 +19°C° 0.1 mm 1 mps 756 mmHg 68%
    14:00 +19°C° 0.1 mm 1 mps 756 mmHg 67%
    15:00 +19°C° 0.1 mm 1 mps 755 mmHg 67%
    16:00 +18°C° 0.1 mm 1 mps 755 mmHg 72%
    17:00 +16°C° 0.1 mm 1 mps 755 mmHg 77%
    18:00 +16°C° 0.1 mm 1 mps 755 mmHg 82%
    19:00 +15°C° 0.2 mm 1 mps 756 mmHg 84%
    20:00 +15°C° 0.2 mm 1 mps 756 mmHg 86%
    21:00 +15°C° 0.2 mm 1 mps 756 mmHg 87%
    22:00 +15°C° 0.2 mm 1 mps 756 mmHg 88%
    23:00 +15°C° 0.2 mm 2 mps 756 mmHg 88%

    23 November, Friday

    Time Temperature Precipitation Wind Pressure Humidity
    00:00 +15°C° 0.2 mm 2 mps 755 mmHg 88%
    01:00 +14°C° 0.3 mm 2 mps 755 mmHg 88%
    02:00 +14°C° 0.3 mm 2 mps 754 mmHg 88%
    03:00 +13°C° 0.3 mm 3 mps 754 mmHg 88%
    04:00 +14°C° 0.5 mm 2 mps 754 mmHg 88%
    05:00 +14°C° 0.5 mm 2 mps 754 mmHg 88%
    06:00 +14°C° 0.5 mm 2 mps 754 mmHg 89%
    07:00 +14°C° 0.5 mm 2 mps 754 mmHg 88%
    08:00 +14°C° 0.5 mm 2 mps 755 mmHg 88%
    09:00 +14°C° 0.5 mm 2 mps 755 mmHg 87%
    10:00 +14°C° 0.3 mm 2 mps 755 mmHg 86%
    11:00 +15°C° 0.3 mm 1 mps 755 mmHg 84%
    12:00 +15°C° 0.3 mm 1 mps 755 mmHg 82%
    13:00 +16°C° 0.1 mm 1 mps 755 mmHg 81%
    14:00 +16°C° 0.1 mm 1 mps 755 mmHg 80%
    15:00 +16°C° 0.1 mm 1 mps 755 mmHg 79%
    16:00 +16°C° 0.2 mm 1 mps 755 mmHg 80%
    17:00 +15°C° 0.2 mm 1 mps 755 mmHg 82%
    18:00 +15°C° 0.2 mm 1 mps 755 mmHg 84%
    19:00 +15°C° 0.1 mm 1 mps 755 mmHg 85%
    20:00 +15°C° 0.1 mm 1 mps 756 mmHg 85%
    21:00 +15°C° 0.1 mm 1 mps 756 mmHg 86%
    22:00 +15°C° 0.8 mm 1 mps 756 mmHg 86%
    23:00 +15°C° 0.8 mm 1 mps 756 mmHg 87%

    24 November, Saturday

    Time Temperature Precipitation Wind Pressure Humidity
    00:00 +15°C° 0.8 mm 1 mps 755 mmHg 88%
    01:00 +15°C° 1 mm 2 mps 755 mmHg 88%
    02:00 +15°C° 1 mm 2 mps 755 mmHg 89%
    03:00 +15°C° 1 mm 2 mps 755 mmHg 89%
    04:00 +14°C° 0.4 mm 2 mps 755 mmHg 89%
    05:00 +14°C° 0.4 mm 2 mps 755 mmHg 89%
    06:00 +14°C° 0.4 mm 2 mps 755 mmHg 89%
    07:00 +15°C° 0.2 mm 2 mps 755 mmHg 89%
    08:00 +15°C° 0.2 mm 1 mps 756 mmHg 88%
    09:00 +15°C° 0.2 mm 1 mps 756 mmHg 88%
    10:00 +15°C° 0.1 mm 2 mps 756 mmHg 85%
    11:00 +16°C° 0.1 mm 2 mps 755 mmHg 83%
    12:00 +16°C° 0.1 mm 2 mps 755 mmHg 81%
    13:00 +16°C° 0 mm 2 mps 755 mmHg 79%
    14:00 +17°C° 0 mm 2 mps 755 mmHg 77%
    15:00 +17°C° 0 mm 2 mps 755 mmHg 75%
    16:00 +16°C° 0 mm 1 mps 755 mmHg 78%
    17:00 +16°C° 0 mm 1 mps 755 mmHg 80%
    18:00 +15°C° 0 mm 1 mps 755 mmHg 82%
    19:00 +14°C° 0 mm 2 mps 756 mmHg 82%
    20:00 +14°C° 0 mm 2 mps 756 mmHg 82%
    21:00 +13°C° 0 mm 2 mps 757 mmHg 82%
    22:00 +13°C° 0 mm 2 mps 757 mmHg 82%
    23:00 +12°C° 0 mm 2 mps 757 mmHg 82%
    Show more